Regional Weather Roundup
Issued by NWS Spokane, WA

Home | Current Version | Previous Version | Text Only | Print | Product List | Glossary On
Versions: 1 2 3 4 5 6 7 8 9 10 11 12 13 14 15 16 17 18 19 20 21 22 23 24 25 26 27 28 29 30 31 32 33 34 35 36 37 38 39 40 41 42 43 44 45 46 47 48 49 50
000
NZUS01 KOTX 061600
RWROTX
EASTERN WASHINGTON/NORTHERN IDAHO ROUNDUP
NATIONAL WEATHER SERVICE, SPOKANE WA
900 AM PDT FRI MAY 06 2016

Note: "fair" indicated few or no clouds below 12,000 feet with no
significant weather and/or obstructions to visibility.

...NORTHEAST WASHINGTON AND NORTHERN IDAHO PANHANDLE...

CITY           SKY/WX    TMP DP  RH WIND       PRES   REMARKS
SPOKANE INTL   PTSUNNY   64  48  56 NE14      30.05R
SPOKANE DOWNTO MOSUNNY   68  50  52 VRB5      30.05R
COEUR D ALENE  MOSUNNY   64  48  55 N16G22    30.04S
DEER PARK      CLOUDY    64  48  56 NE14G25   30.07S

...SOUTHEAST WASHINGTON AND SOUTHERN IDAHO PANHANDLE...

CITY           SKY/WX    TMP DP  RH WIND       PRES   REMARKS
WALLA WALLA    MOSUNNY   58  49  72 S8        29.99R
PULLMAN/MOSCOW PTSUNNY   60  55  83 W5        30.02R
LOWELL           N/A     58  56  93 CALM      29.98F

...COLUMBIA BASIN...

CITY           SKY/WX    TMP DP  RH WIND       PRES   REMARKS
EPHRATA        SUNNY     69  41  36 N23       30.02S
MOSES LAKE     SUNNY     69  43  38 N16G24    30.03S
TRI CITIES     SUNNY     66  50  56 N10       30.00R
HERMISTON      MOSUNNY   66  46  48 N12       29.99R
PENDLETON      PTSUNNY   58  46  64 W6        29.99S

...EAST SLOPES CASCADES...

CITY           SKY/WX    TMP DP  RH WIND       PRES   REMARKS
THE DALLES     SUNNY     63  51  65 CALM      30.00F
YAKIMA         SUNNY     68  45  43 NW7       30.03S
ELLENSBURG     SUNNY     61  48  62 CALM      30.05S
STAMPEDE PASS  SUNNY     56  42  59 CALM      30.11R
WENATCHEE      SUNNY     59  46  62 W7        30.08S
OMAK           MOSUNNY   61  37  41 N18G25    30.12S

...SOUTHERN BRITISH COLUMBIA...

CITY           SKY/WX    TMP DP  RH WIND       PRES   REMARKS

...WESTERN MONTANA...

CITY           SKY/WX    TMP DP  RH WIND       PRES   REMARKS
MISSOULA       PTSUNNY   60  42  51 E24G31    30.13S

...NEIGHBORING CITIES...

CITY           SKY/WX    TMP DP  RH WIND       PRES   REMARKS
SEATTLE        MOSUNNY   61  46  57 N12       30.10S



USA.gov is the U.S. government's official web portal to all federal, state and local government web resources and services.